Vorticity
22 17 14 13 11 13 12 11 10 10 14 14 13 8 15 10 10 3 5 25 24 14
15 15 14 14 10 6 8 11 10 10 8 16 15 6 15 11 9 3 5 12 17 -1
12 8 10 2 11 9 9 4 11 14 7 20 19 6 19 13 7 4 5 17 37 8
13 18 7 6 3 6 16 24 25 22 13 25 20 8 17 10 9 13 23 17 9 2
20 10 7 12 7 24 18 17 14 22 36 16 19 22 20 11 6 7 20 -3 30 13
17 26 19 21 16 10 25 14 33 22 23 20 5 7 25 8 16 0 33 -15 5 11
9 7 12 23 29 18 14 21 13 34 17 37 7 23 14 3 10 2 14 4 25 0
5 16 4 -2 16 23 5 26 22 12 35 1 27 28 -1 7 2 14 24 18 -9 -2
-1 13 12 11 7 36 15 8 3 0 28 14 7 -9 -3 4 -1 20 -6 28 -4 34
16 12 6 19 23 13 13 13 20 1 26 23 21 11 11 6 1 7 11 -3 4 14
17 7 3 15 -1 8 10 30 32 13 13 11 7 23 24 6 -0 5 8 29 15 10
24 14 -2 12 18 15 20 16 24 40 2 8 33 19 7 11 1 2 21 5 19 24
21 -0 12 14 10 1 22 11 1 -4 10 2 -1 -1 -8 5 19 23 0 16 20 27
9 15 7 14 9 9 7 13 7 13 15 14 13 16 13 5 8 13 22 15 16 15
Height
3017 3015 3014 3013 3013 3014 3013 3014 3014 3014 3014 3015 3018 3021 3024 3027 3032 3036 3039 3042 3046 3050
3008 3006 3005 3005 3003 3003 3003 3003 3003 3004 3005 3006 3009 3011 3015 3019 3024 3027 3032 3034 3039 3043
3001 2999 2998 2997 2996 2994 2993 2993 2992 2993 2995 2997 2999 3003 3006 3011 3017 3020 3025 3028 3032 3037
2994 2993 2991 2989 2986 2984 2982 2981 2980 2982 2984 2987 2990 2994 2998 3005 3011 3015 3018 3022 3025 3030
2987 2985 2982 2979 2977 2974 2973 2971 2971 2971 2972 2977 2982 2987 2992 3000 3005 3008 3013 3017 3020 3024
2980 2977 2973 2971 2969 2968 2965 2964 2963 2964 2966 2970 2976 2981 2988 2995 2999 3004 3008 3011 3015 3017
2976 2973 2970 2967 2964 2962 2961 2960 2960 2959 2962 2961 2969 2976 2984 2991 2996 3000 3002 3009 3012 3016
2975 2972 2969 2965 2961 2958 2957 2957 2956 2958 2959 2962 2968 2975 2981 2988 2994 2998 3002 3004 3008 3012
2974 2971 2967 2964 2960 2955 2955 2956 2956 2959 2960 2964 2969 2975 2974 2988 2992 2996 3000 3003 3007 3010
2974 2971 2968 2963 2960 2958 2956 2955 2955 2957 2959 2963 2969 2972 2979 2986 2992 2995 2998 3001 3004 3007
2974 2971 2968 2965 2962 2960 2957 2954 2955 2958 2961 2965 2970 2976 2978 2985 2990 2994 2996 2998 3001 3004
2972 2971 2969 2967 2964 2962 2960 2960 2959 2960 2964 2968 2972 2977 2979 2986 2989 2992 2995 2997 3000 3001
2972 2971 2969 2968 2967 2965 2964 2965 2967 2967 2970 2972 2975 2979 2981 2985 2988 2991 2993 2995 2997 2999
2973 2972 2971 2969 2968 2967 2968 2969 2970 2971 2973 2976 2979 2980 2982 2985 2988 2990 2992 2994 2997 2999